Find Starlink 4683

NORAD ID: 53712 Int'l Des: 2022-107 Owner: SPXS Country: US Constellation: starlink operational
LEOCIRCULAR

当前视图

正在加载3D地球...

About Starlink 4683

Starlink 4683 (NORAD 53712) is a starlink constellation satellite (v1.5) launched Sep 5, 2022 by SPXS of US. It operates in LEO, CIRCULAR orbit with a mass of 305.00 kg.

即将过境

Passes for default location (London). Set your location on the main map for personalized predictions.

高度历史

Loading altitude history...

两行轨道根数

1 53712U 22107N 26262.88641833 -.00000080 00000-0 87657-5 0 9996
2 53712 53.1581 86.6992 0000914 104.7435 255.3668 15.34385863223953
Epoch: Sep 19, 2026 • Age: 16 hours

当前状态

高度 463.7 km
远地点 / 近地点 N/A
速度 7.64 km/s
星下点 0.56°N, 109.01°W
发射日期 Sep 5, 2022
运行时间 4 years
类型 internet

技术详情

分类 Payload
质量 305.00 kg
干质量 290.00 kg
长度 0.20 m
跨度 9.00 m
形状 ? Box + pan
制造商 SPXS
平台类型 Starlink
阶段状态 In Orbit
所有者/国家 SPXS/US

Most Searched